Bellingham, WA
on Thursday, November 8, 2012

Thursday
Previous Day Next Day
Daily Summary
 ActualAverageRecord
Temperature
Mean Temperature °F 45°F  
Max Temperature 52°F 52°F 63°F (2008)
Min Temperature 36°F 38°F 27°F (1979)
Degree Days
Heating Degree Days 21 20  
Month to date heating degree days 155  
Cooling Degree Days 0 0  
Month to date cooling degree days 0  
Year to date cooling degree days 42  
Moisture
Dew Point 30°F   
Average Humidity 62    
Maximum Humidity 89    
Minimum Humidity 40    
Precipitation
Precipitation 0.00 in 0.20 in 1.16 in (1989)
Month to date precipitation 1.53  
Year to date precipitation 27.34  
Wind
Wind Speed 9 mph   
Max Wind Speed 23 mph   
Max Gust Speed 32 mph   
Visibility 10 miles   
Events     

Key: T is trace of precipitation, MM is missing value
Source: NWS Daily Summary
Time(PST)TemperatureDew PointHumidity Pressure Visibility Wind DirectionWind SpeedGust SpeedPrecipitationEvents Conditions
12:53 AM 37.0°F 33.1°F 86% 29.97 in 10.0 miles North 5.8 mph - N/A   Clear
1:53 AM 37.0°F 33.1°F 86% 29.96 in 10.0 miles North 5.8 mph - N/A   Clear
2:53 AM 36.0°F 33.1°F 89% 29.95 in 10.0 miles North 5.8 mph - N/A   Clear
3:53 AM 37.0°F 33.1°F 86% 29.94 in 10.0 miles NNE 6.9 mph - N/A   Clear
4:53 AM 37.9°F 33.1°F 83% 29.92 in 10.0 miles North 10.4 mph - N/A   Clear
5:53 AM 37.0°F 33.1°F 86% 29.92 in 10.0 miles NNE 8.1 mph - N/A   Clear
6:53 AM 37.9°F 32.0°F 79% 29.91 in 10.0 miles North 8.1 mph - N/A   Clear
7:53 AM 37.9°F 32.0°F 79% 29.91 in 10.0 miles NNE 5.8 mph - N/A   Clear
8:53 AM 44.1°F 33.1°F 65% 29.91 in 10.0 miles North 9.2 mph - N/A   Clear
9:53 AM 48.0°F 34.0°F 58% 29.90 in 10.0 miles North 12.7 mph - N/A   Clear
10:53 AM 50.0°F 33.1°F 52% 29.88 in 10.0 miles North 15.0 mph 23.0 mph N/A   Clear
11:53 AM 52.0°F 32.0°F 47% 29.87 in 10.0 miles North 17.3 mph 28.8 mph N/A   Clear
12:53 PM 52.0°F 30.0°F 43% 29.86 in 10.0 miles North 20.7 mph 32.2 mph N/A   Clear
1:53 PM 52.0°F 28.0°F 40% 29.85 in 10.0 miles North 23.0 mph 29.9 mph N/A   Clear
2:53 PM 51.1°F 28.0°F 41% 29.85 in 10.0 miles North 16.1 mph 25.3 mph N/A   Clear
3:53 PM 50.0°F 28.0°F 43% 29.85 in 10.0 miles North 13.8 mph 23.0 mph N/A   Clear
4:53 PM 48.0°F 28.0°F 46% 29.86 in 10.0 miles NNE 12.7 mph - N/A   Clear
5:53 PM 44.1°F 28.9°F 55% 29.86 in 10.0 miles North 6.9 mph - N/A   Clear
6:53 PM 44.1°F 28.9°F 55% 29.86 in 10.0 miles North 9.2 mph - N/A   Clear
7:53 PM 43.0°F 28.9°F 58% 29.86 in 10.0 miles North 10.4 mph - N/A   Clear
8:53 PM 42.1°F 28.0°F 58% 29.86 in 10.0 miles North 6.9 mph - N/A   Clear
9:53 PM 42.1°F 27.0°F 55% 29.87 in 10.0 miles NNE 10.4 mph - N/A   Clear
10:53 PM 43.0°F 26.1°F 51% 29.87 in 10.0 miles North 12.7 mph 20.7 mph N/A   Clear
11:53 PM 41.0°F 25.0°F 53% 29.87 in 10.0 miles North 10.4 mph - N/A   Clear
Moon Phase
Nov. 08 Nov. 13 Nov. 20 Nov. 28 Dec. 06
Sunrise:07:09 AM (PST) Moon Rise:12:41 AM (PST)11/8
Sunset:04:38 PM (PST) Moon Set:01:47 PM (PST)11/8

Copyright © 2014 The Weather Underground, Inc.